• In Belarus
  • List of Countries
  • For 7 days
  • Water Temperature
  • Satellite Maps
  • Weather Map
  • Weather Widgets
  • user-avatar
    Login

    Hourly Weather Brčko

    Today, 21 November, Wednesday

    Time Temperature Precipitation Wind Pressure Humidity
    00:00 +5°C° 0 mm 1 mps 750 mmHg 84%
    01:00 +5°C° 0 mm 1 mps 751 mmHg 77%
    02:00 +5°C° 0 mm 1 mps 751 mmHg 77%
    03:00 +5°C° 0 mm 1 mps 751 mmHg 77%
    04:00 +5°C° 0 mm 1 mps 751 mmHg 77%
    05:00 +5°C° 0 mm 1 mps 751 mmHg 78%
    06:00 +5°C° 0 mm 1 mps 751 mmHg 79%
    07:00 +5°C° 0 mm 1 mps 752 mmHg 79%
    08:00 +5°C° 0.1 mm 1 mps 752 mmHg 77%
    09:00 +6°C° 0.1 mm 1 mps 752 mmHg 75%
    10:00 +7°C° 0.1 mm 1 mps 753 mmHg 73%
    11:00 +7°C° 0.1 mm 1 mps 753 mmHg 71%
    12:00 +8°C° 0.1 mm 1 mps 753 mmHg 69%
    13:00 +8°C° 0.1 mm 0 mps 753 mmHg 67%
    14:00 +7°C° 0 mm 0 mps 753 mmHg 70%
    15:00 +7°C° 0 mm 0 mps 753 mmHg 73%
    16:00 +6°C° 0 mm 0 mps 753 mmHg 75%
    17:00 +7°C° 0 mm 1 mps 754 mmHg 78%
    18:00 +6°C° 0 mm 1 mps 754 mmHg 81%
    19:00 +6°C° 0 mm 1 mps 754 mmHg 84%
    20:00 +5°C° 0 mm 1 mps 755 mmHg 86%
    21:00 +5°C° 0 mm 1 mps 755 mmHg 87%
    22:00 +4°C° 0 mm 0 mps 755 mmHg 89%
    23:00 +4°C° 0 mm 0 mps 755 mmHg 88%

    Tomorrow, 22 November, Thursday

    Time Temperature Precipitation Wind Pressure Humidity
    00:00 +4°C° 0 mm 0 mps 756 mmHg 88%
    01:00 +4°C° 0 mm 0 mps 756 mmHg 88%
    02:00 +4°C° 0 mm 0 mps 756 mmHg 88%
    03:00 +4°C° 0 mm 0 mps 756 mmHg 87%
    04:00 +4°C° 0 mm 0 mps 756 mmHg 87%
    05:00 +4°C° 0 mm 0 mps 756 mmHg 88%
    06:00 +5°C° 0 mm 1 mps 756 mmHg 89%
    07:00 +5°C° 0 mm 1 mps 756 mmHg 90%
    08:00 +6°C° 0 mm 1 mps 757 mmHg 85%
    09:00 +7°C° 0 mm 1 mps 757 mmHg 80%
    10:00 +8°C° 0 mm 1 mps 757 mmHg 75%
    11:00 +9°C° 0 mm 1 mps 757 mmHg 73%
    12:00 +10°C° 0 mm 1 mps 757 mmHg 71%
    13:00 +10°C° 0 mm 1 mps 757 mmHg 69%
    14:00 +10°C° 0 mm 1 mps 757 mmHg 73%
    15:00 +9°C° 0 mm 1 mps 757 mmHg 76%
    16:00 +8°C° 0 mm 1 mps 758 mmHg 79%
    17:00 +8°C° 0 mm 1 mps 758 mmHg 81%
    18:00 +8°C° 0 mm 1 mps 758 mmHg 84%
    19:00 +7°C° 0 mm 1 mps 759 mmHg 86%
    20:00 +7°C° 0 mm 1 mps 759 mmHg 87%
    21:00 +5°C° 0 mm 0 mps 759 mmHg 88%
    22:00 +5°C° 0 mm 0 mps 759 mmHg 89%
    23:00 +5°C° 0 mm 0 mps 759 mmHg 90%

    Day after tomorrow, 23 November, Friday

    Time Temperature Precipitation Wind Pressure Humidity
    00:00 +5°C° 0 mm 0 mps 759 mmHg 90%
    01:00 +4°C° 0 mm 0 mps 760 mmHg 91%
    02:00 +4°C° 0 mm 0 mps 760 mmHg 91%
    03:00 +4°C° 0 mm 0 mps 760 mmHg 91%
    04:00 +4°C° 0 mm 0 mps 760 mmHg 92%
    05:00 +4°C° 0 mm 0 mps 760 mmHg 92%
    06:00 +4°C° 0 mm 0 mps 760 mmHg 92%
    07:00 +3°C° 0 mm 0 mps 760 mmHg 92%
    08:00 +5°C° 0 mm 0 mps 761 mmHg 86%
    09:00 +8°C° 0 mm 1 mps 761 mmHg 79%
    10:00 +10°C° 0 mm 1 mps 761 mmHg 73%
    11:00 +11°C° 0 mm 1 mps 761 mmHg 69%
    12:00 +12°C° 0 mm 1 mps 760 mmHg 65%
    13:00 +13°C° 0 mm 1 mps 760 mmHg 61%
    14:00 +12°C° 0 mm 1 mps 760 mmHg 66%
    15:00 +10°C° 0 mm 2 mps 760 mmHg 70%
    16:00 +9°C° 0 mm 2 mps 759 mmHg 74%
    17:00 +8°C° 0 mm 2 mps 759 mmHg 77%
    18:00 +8°C° 0 mm 2 mps 760 mmHg 81%
    19:00 +7°C° 0 mm 2 mps 760 mmHg 84%
    20:00 +7°C° 0 mm 2 mps 759 mmHg 85%
    21:00 +7°C° 0 mm 2 mps 759 mmHg 86%
    22:00 +6°C° 0 mm 2 mps 759 mmHg 86%
    23:00 +6°C° 0 mm 2 mps 759 mmHg 86%

    24 November, Saturday

    Time Temperature Precipitation Wind Pressure Humidity
    00:00 +6°C° 0 mm 2 mps 758 mmHg 87%
    01:00 +6°C° 0 mm 2 mps 758 mmHg 87%
    02:00 +6°C° 0 mm 2 mps 758 mmHg 85%
    03:00 +6°C° 0 mm 2 mps 757 mmHg 84%
    04:00 +7°C° 0 mm 2 mps 757 mmHg 83%
    05:00 +7°C° 0 mm 2 mps 756 mmHg 81%
    06:00 +7°C° 0 mm 2 mps 756 mmHg 79%
    07:00 +7°C° 0 mm 2 mps 756 mmHg 77%
    08:00 +9°C° 0 mm 2 mps 756 mmHg 71%
    09:00 +10°C° 0 mm 2 mps 756 mmHg 66%
    10:00 +12°C° 0 mm 2 mps 756 mmHg 60%
    11:00 +13°C° 0 mm 2 mps 755 mmHg 56%
    12:00 +14°C° 0 mm 2 mps 755 mmHg 52%
    13:00 +15°C° 0 mm 2 mps 754 mmHg 48%
    14:00 +14°C° 0 mm 2 mps 754 mmHg 53%
    15:00 +14°C° 0 mm 2 mps 754 mmHg 58%
    16:00 +13°C° 0 mm 2 mps 754 mmHg 63%
    17:00 +12°C° 0.1 mm 2 mps 754 mmHg 66%
    18:00 +12°C° 0.1 mm 2 mps 754 mmHg 69%
    19:00 +12°C° 0.1 mm 2 mps 753 mmHg 72%
    20:00 +10°C° 0 mm 2 mps 754 mmHg 74%
    21:00 +10°C° 0 mm 2 mps 754 mmHg 75%
    22:00 +10°C° 0 mm 2 mps 754 mmHg 77%
    23:00 +11°C° 0 mm 1 mps 754 mmHg 78%

    25 November, Sunday

    Time Temperature Precipitation Wind Pressure Humidity
    00:00 +11°C° 0 mm 1 mps 754 mmHg 79%
    01:00 +11°C° 0 mm 1 mps 754 mmHg 81%
    02:00 +11°C° 0.3 mm 1 mps 753 mmHg 82%
    03:00 +11°C° 0.3 mm 1 mps 753 mmHg 84%
    04:00 +11°C° 0.3 mm 1 mps 753 mmHg 86%
    05:00 +10°C° 0.3 mm 1 mps 753 mmHg 87%
    06:00 +9°C° 0.3 mm 0 mps 753 mmHg 88%
    07:00 +9°C° 0.3 mm 0 mps 753 mmHg 90%
    08:00 +10°C° 0.2 mm 0 mps 753 mmHg 87%
    09:00 +10°C° 0.2 mm 0 mps 753 mmHg 84%
    10:00 +11°C° 0.2 mm 0 mps 753 mmHg 80%
    11:00 +12°C° 0 mm 1 mps 752 mmHg 78%
    12:00 +13°C° 0 mm 1 mps 752 mmHg 76%
    13:00 +14°C° 0 mm 1 mps 751 mmHg 73%
    14:00 +13°C° 0.1 mm 1 mps 751 mmHg 77%
    15:00 +12°C° 0.1 mm 1 mps 751 mmHg 81%
    16:00 +12°C° 0.1 mm 1 mps 750 mmHg 85%
    17:00 +11°C° 0.3 mm 1 mps 750 mmHg 87%
    18:00 +11°C° 0.3 mm 1 mps 750 mmHg 90%
    19:00 +11°C° 0.3 mm 1 mps 750 mmHg 92%
    20:00 +11°C° 0.5 mm 1 mps 750 mmHg 93%
    21:00 +11°C° 0.5 mm 1 mps 749 mmHg 93%
    22:00 +10°C° 0.5 mm 1 mps 749 mmHg 94%
    23:00 +10°C° 0.5 mm 1 mps 749 mmHg 95%

    26 November, Monday

    Time Temperature Precipitation Wind Pressure Humidity
    00:00 +10°C° 0.5 mm 1 mps 748 mmHg 95%
    01:00 +9°C° 0.5 mm 2 mps 748 mmHg 95%
    02:00 +9°C° 1 mm 2 mps 748 mmHg 95%
    03:00 +9°C° 1 mm 2 mps 747 mmHg 95%
    04:00 +9°C° 1 mm 2 mps 747 mmHg 95%
    05:00 +9°C° 0.6 mm 2 mps 747 mmHg 94%
    06:00 +8°C° 0.6 mm 2 mps 747 mmHg 94%
    07:00 +8°C° 0.6 mm 2 mps 747 mmHg 94%
    08:00 +8°C° 0.3 mm 2 mps 747 mmHg 93%
    09:00 +8°C° 0.3 mm 2 mps 748 mmHg 92%
    10:00 +8°C° 0.3 mm 2 mps 748 mmHg 90%
    11:00 +9°C° 0.2 mm 2 mps 748 mmHg 89%
    12:00 +9°C° 0.2 mm 2 mps 748 mmHg 87%
    13:00 +9°C° 0.2 mm 2 mps 748 mmHg 85%
    14:00 +9°C° 0 mm 2 mps 748 mmHg 86%
    15:00 +9°C° 0 mm 1 mps 748 mmHg 86%
    16:00 +9°C° 0 mm 1 mps 748 mmHg 87%
    17:00 +9°C° 0 mm 1 mps 748 mmHg 88%
    18:00 +8°C° 0 mm 1 mps 748 mmHg 89%
    19:00 +8°C° 0 mm 1 mps 749 mmHg 91%
    20:00 +8°C° 0.1 mm 1 mps 749 mmHg 91%
    21:00 +8°C° 0.1 mm 1 mps 749 mmHg 90%
    22:00 +8°C° 0.1 mm 1 mps 749 mmHg 90%
    23:00 +8°C° 0.5 mm 1 mps 749 mmHg 90%
    Show more